EW9132 Weather Reports


time (UTC)temp
C
wind
direction
speed
KPH
gust
KPH
rain 1hr
cm
rain 24hr
cm
rain mn
cm
humidity
%
barometer
mb
20260506151003 13 311 9.7 12.9 0.00 0.23 0.23 78 1011.8
20260506150504 13 318 9.7 9.7 0.00 0.23 0.23 78 1011.8
20260506150004 13 323 11.3 19.3 0.00 0.23 0.23 77 1011.8
20260506145503 13 313 11.3 16.1 0.00 0.23 0.23 76 1011.8
20260506145003 13 316 12.9 17.7 0.00 0.23 0.23 76 1011.8
20260506144503 13 315 14.5 20.9 0.00 0.23 0.23 76 1011.8
20260506144003 13 318 14.5 20.9 0.00 0.23 0.23 76 1011.8
20260506143503 13 317 14.5 19.3 0.00 0.23 0.23 76 1011.8
20260506143003 13 323 16.1 19.3 0.00 0.23 0.23 75 1011.9
20260506142503 13 324 17.7 25.7 0.00 0.23 0.23 75 1011.8
20260506142003 13 315 11.3 17.7 0.00 0.23 0.23 75 1011.8
20260506141503 13 322 17.7 19.3 0.00 0.23 0.23 74 1011.8
20260506141003 13 317 16.1 17.7 0.00 0.23 0.23 74 1011.8
20260506140524 13 328 14.5 17.7 0.00 0.23 0.23 74 1011.8
20260506140024 13 315 12.9 22.5 0.00 0.23 0.23 74 1011.9
20260506135503 13 312 11.3 17.7 0.00 0.23 0.23 75 1011.7
20260506135003 13 320 17.7 24.1 0.00 0.23 0.23 74 1011.8
20260506134503 13 320 16.1 25.7 0.00 0.23 0.23 74 1011.8
20260506134024 13 321 14.5 19.3 0.00 0.23 0.23 75 1011.8
20260506133503 13 319 16.1 22.5 0.00 0.23 0.23 75 1011.8
20260506133003 13 321 17.7 22.5 0.00 0.23 0.23 74 1011.8
20260506132503 13 325 16.1 22.5 0.00 0.23 0.23 74 1011.8
20260506132003 13 324 20.9 24.1 0.00 0.23 0.23 73 1011.7
20260506131503 14 319 16.1 24.1 0.00 0.23 0.23 73 1011.8
20260506131003 14 316 17.7 24.1 0.00 0.23 0.23 73 1011.7
20260506130524 13 325 14.5 20.9 0.00 0.23 0.23 74 1011.6
20260506130004 13 320 14.5 19.3 0.00 0.23 0.23 76 1011.7
20260506125503 13 318 16.1 19.3 0.00 0.23 0.23 76 1011.6
20260506125003 13 320 16.1 24.1 0.00 0.23 0.23 75 1011.6
20260506124524 13 321 16.1 20.9 0.00 0.23 0.23 76 1011.6
20260506124003 13 320 17.7 19.3 0.00 0.23 0.23 75 1011.6
20260506123503 13 316 14.5 16.1 0.00 0.23 0.23 76 1011.6
20260506123003 12 319 14.5 17.7 0.00 0.23 0.23 77 1011.5
20260506122503 12 327 16.1 19.3 0.00 0.23 0.23 76 1011.5
20260506122003 12 327 17.7 22.5 0.00 0.23 0.23 76 1011.6
20260506121503 12 326 16.1 24.1 0.00 0.23 0.23 76 1011.6
20260506121003 12 323 17.7 20.9 0.00 0.23 0.23 77 1011.5
20260506120503 12 324 14.5 24.1 0.00 0.23 0.23 78 1011.5
20260506120003 12 322 16.1 20.9 0.00 0.23 0.23 77 1011.5
20260506115503 12 323 16.1 24.1 0.00 0.23 0.23 76 1011.5
20260506115003 12 337 14.5 16.1 0.00 0.23 0.23 78 1011.6
20260506114503 12 344 17.7 20.9 0.00 0.23 0.23 77 1011.5
20260506114003 12 345 17.7 20.9 0.00 0.23 0.23 77 1011.5
20260506113503 12 343 16.1 19.3 0.00 0.23 0.23 77 1011.6
20260506113003 12 345 19.3 22.5 0.00 0.23 0.23 77 1011.5
20260506112503 12 340 19.3 24.1 0.00 0.23 0.23 77 1011.6
20260506112024 12 334 16.1 22.5 0.00 0.23 0.23 77 1011.6
20260506111503 12 338 16.1 24.1 0.00 0.23 0.23 78 1011.6
20260506111003 12 339 17.7 19.3 0.00 0.23 0.23 77 1011.5
20260506110503 12 342 19.3 19.3 0.00 0.23 0.23 76 1011.4
20260506110003 12 338 16.1 24.1 0.00 0.23 0.23 76 1011.4
20260506105503 12 328 19.3 19.3 0.00 0.23 0.23 76 1011.4
20260506105003 12 343 19.3 25.7 0.00 0.23 0.23 77 1011.4
20260506104504 12 341 19.3 29.0 0.00 0.23 0.23 76 1011.4
20260506104003 12 344 19.3 22.5 0.00 0.23 0.23 76 1011.4
20260506103503 12 346 20.9 29.0 0.00 0.23 0.23 75 1011.4
20260506103003 12 333 17.7 25.7 0.00 0.23 0.23 75 1011.3
20260506102503 12 344 17.7 24.1 0.00 0.23 0.23 75 1011.3
20260506102003 12 326 16.1 22.5 0.00 0.23 0.23 74 1011.3
20260506101504 13 323 19.3 20.9 0.00 0.23 0.23 73 1011.3
20260506101003 13 328 12.9 19.3 0.00 0.23 0.23 75 1011.2
20260506100503 13 332 17.7 24.1 0.00 0.23 0.23 75 1011.2
20260506100004 13 341 17.7 20.9 0.00 0.23 0.23 74 1011.2
20260506095503 13 343 16.1 17.7 0.00 0.23 0.23 76 1011.2
20260506095003 13 344 20.9 22.5 0.00 0.23 0.23 75 1011.2
20260506094503 13 350 16.1 19.3 0.00 0.23 0.23 75 1011.1
20260506094003 13 343 22.5 29.0 0.00 0.23 0.23 74 1011.1
20260506093503 13 343 19.3 25.7 0.00 0.23 0.23 75 1011.0
20260506093003 13 343 20.9 30.6 0.00 0.23 0.23 75 1011.1
20260506092503 13 344 20.9 24.1 0.00 0.23 0.23 77 1011.1
20260506092003 12 334 16.1 20.9 0.00 0.23 0.23 76 1011.1
20260506091524 12 320 19.3 29.0 0.00 0.23 0.23 76 1011.0
20260506091003 12 343 17.7 29.0 0.00 0.23 0.23 77 1011.1
20260506090503 12 336 17.7 22.5 0.00 0.23 0.23 77 1011.0
20260506090003 12 325 16.1 29.0 0.00 0.23 0.23 78 1011.0
20260506085503 11 325 16.1 17.7 0.00 0.23 0.23 79 1010.9
20260506085003 11 322 17.7 20.9 0.00 0.23 0.23 79 1010.9
20260506084503 11 321 16.1 25.7 0.00 0.23 0.23 79 1010.9
20260506084003 11 320 16.1 25.7 0.00 0.23 0.23 78 1010.9
20260506083503 11 319 16.1 24.1 0.00 0.23 0.23 78 1010.9
20260506083003 11 330 16.1 24.1 0.00 0.23 0.23 78 1010.9
20260506082503 11 323 16.1 22.5 0.00 0.23 0.23 77 1010.9
20260506082003 12 325 14.5 22.5 0.00 0.23 0.23 78 1010.8
20260506081503 12 319 16.1 22.5 0.00 0.23 0.23 77 1010.7
20260506081003 12 330 14.5 14.5 0.00 0.23 0.23 76 1010.7
20260506080503 12 321 17.7 24.1 0.00 0.23 0.23 76 1010.7
20260506073503 12 324 17.7 24.1 0.00 0.23 0.23 77 1010.7
20260506073003 12 324 17.7 32.2 0.00 0.23 0.23 77 1010.6
20260506072503 12 333 16.1 20.9 0.00 0.23 0.23 77 1010.6
20260506072024 12 324 17.7 22.5 0.00 0.23 0.23 76 1010.6
20260506071524 12 319 16.1 24.1 0.00 0.23 0.23 77 1010.6
20260506071003 12 321 19.3 25.7 0.00 0.23 0.23 77 1010.5
20260506070503 11 319 17.7 32.2 0.00 0.23 0.23 77 1010.5
20260506062503 10 329 9.7 17.7 0.00 0.23 0.23 83 1010.5
20260506062024 10 315 9.7 16.1 0.00 0.23 0.23 83 1010.5
20260506061503 10 318 11.3 19.3 0.00 0.23 0.23 83 1010.5
20260506061024 10 313 11.3 16.1 0.00 0.23 0.23 84 1010.5
20260506060503 10 318 9.7 12.9 0.00 0.23 0.23 84 1010.5
20260506051003 9 322 11.3 16.1 0.00 0.23 0.23 86 1010.4
20260506050503 9 324 12.9 17.7 0.00 0.23 0.23 86 1010.4
20260506045003 9 324 12.9 19.3 0.00 0.23 0.23 86 1010.3
20260506044504 9 323 12.9 17.7 0.00 0.23 0.23 86 1010.3
20260506044004 9 322 12.9 14.5 0.00 0.23 0.23 86 1010.4
20260506043503 9 323 12.9 17.7 0.00 0.23 0.23 86 1010.3
20260506043024 9 325 12.9 17.7 0.00 0.23 0.23 86 1010.2
20260506042503 9 323 12.9 16.1 0.00 0.23 0.23 86 1010.3
20260506042003 9 321 12.9 16.1 0.00 0.23 0.23 85 1010.2
20260506041503 9 323 12.9 16.1 0.00 0.23 0.23 86 1010.2
20260506041003 9 325 12.9 17.7 0.00 0.23 0.23 86 1010.2
20260506040503 9 323 12.9 17.7 0.00 0.23 0.23 86 1010.3
20260506040003 9 322 11.3 17.7 0.00 0.23 0.23 86 1010.3
20260506035503 9 321 14.5 19.3 0.00 0.23 0.23 86 1010.3
20260506035003 9 321 12.9 19.3 0.00 0.23 0.23 86 1010.2
20260506034503 9 324 14.5 19.3 0.00 0.23 0.23 86 1010.3
20260506034003 9 322 12.9 16.1 0.00 0.23 0.23 87 1010.3
20260506033503 9 326 11.3 17.7 0.00 0.23 0.23 87 1010.3
20260506033004 9 323 14.5 16.1 0.00 0.23 0.23 87 1010.3
20260506032503 9 324 12.9 16.1 0.00 0.23 0.23 88 1010.3
20260506032003 9 324 12.9 16.1 0.00 0.23 0.23 88 1010.3
20260506031503 9 325 11.3 16.1 0.00 0.23 0.23 89 1010.2
20260506031003 9 323 11.3 16.1 0.00 0.23 0.23 89 1010.3
20260506030503 9 322 11.3 12.9 0.00 0.23 0.23 89 1010.3
20260506030004 8 326 9.7 12.9 0.00 0.23 0.23 89 1010.4
20260506025503 8 334 9.7 9.7 0.00 0.23 0.23 89 1010.3
20260506025003 8 325 11.3 14.5 0.00 0.23 0.23 89 1010.4
20260506024503 8 326 11.3 14.5 0.00 0.23 0.23 89 1010.4
20260506024003 8 325 11.3 12.9 0.00 0.23 0.23 89 1010.3
20260506023503 8 324 9.7 12.9 0.00 0.23 0.23 88 1010.4
20260506023003 8 325 11.3 14.5 0.00 0.23 0.23 88 1010.3
20260506022503 8 326 9.7 12.9 0.00 0.23 0.23 88 1010.3
20260506022003 8 333 8.0 12.9 0.00 0.23 0.23 87 1010.4
20260506021503 8 324 11.3 12.9 0.00 0.23 0.23 87 1010.3
20260506021003 9 322 11.3 14.5 0.00 0.23 0.23 87 1010.4
20260506020503 9 323 11.3 16.1 0.00 0.23 0.23 87 1010.3
20260506020003 9 322 11.3 12.9 0.00 0.23 0.23 87 1010.4
20260506015503 9 322 9.7 12.9 0.00 0.23 0.23 86 1010.5
20260506015003 9 324 11.3 11.3 0.00 0.23 0.23 86 1010.5
20260506014503 9 322 12.9 17.7 0.00 0.23 0.23 86 1010.5
20260506014003 9 323 11.3 16.1 0.00 0.23 0.23 86 1010.5
20260506013503 9 324 11.3 19.3 0.00 0.23 0.23 86 1010.5
20260506013003 9 334 11.3 12.9 0.00 0.23 0.23 86 1010.4
20260506012503 9 343 11.3 17.7 0.00 0.23 0.23 86 1010.5
20260506012003 9 342 12.9 17.7 0.00 0.23 0.23 86 1010.5
20260506011503 9 344 12.9 12.9 0.00 0.23 0.23 86 1010.6
20260506011003 9 341 14.5 20.9 0.00 0.23 0.23 86 1010.5
20260506010503 9 345 12.9 17.7 0.00 0.23 0.23 86 1010.5
20260506010003 9 340 11.3 12.9 0.00 0.23 0.23 87 1010.6
20260506005503 10 338 11.3 14.5 0.00 0.23 0.23 87 1010.6
20260506005003 10 338 9.7 12.9 0.00 0.23 0.23 87 1010.6
20260506004504 10 341 11.3 14.5 0.00 0.23 0.23 87 1010.6
20260506004003 10 342 11.3 14.5 0.00 0.23 0.23 87 1010.6
20260506003503 10 348 12.9 16.1 0.00 0.23 0.23 87 1010.6
20260506003003 10 345 11.3 14.5 0.00 0.23 0.23 87 1010.6
20260506002503 10 344 11.3 17.7 0.00 0.23 0.23 87 1010.7
20260506002003 10 337 9.7 16.1 0.00 0.23 0.23 87 1010.8
20260506001503 10 329 12.9 12.9 0.00 0.23 0.23 87 1010.7
20260506001003 10 328 12.9 16.1 0.00 0.23 0.23 87 1010.7
20260506000503 10 335 12.9 16.1 0.00 0.23 0.23 88 1010.8
20260506000003 10 329 11.3 17.7 0.00 0.23 0.23 88 1010.8
20260505235503 10 328 11.3 12.9 0.00 0.23 0.23 88 1010.8
20260505235003 10 337 12.9 16.1 0.00 0.23 0.23 88 1010.8
20260505234503 10 339 12.9 17.7 0.00 0.23 0.23 88 1010.8
20260505234003 10 341 12.9 19.3 0.00 0.23 0.23 88 1010.8
20260505233503 10 342 14.5 19.3 0.00 0.23 0.23 88 1010.9
20260505233003 10 343 12.9 19.3 0.00 0.23 0.23 89 1010.9
20260505232503 10 348 11.3 12.9 0.00 0.23 0.23 89 1010.9
20260505232003 10 345 11.3 14.5 0.00 0.23 0.23 89 1010.9
20260505231503 10 346 11.3 14.5 0.00 0.23 0.23 88 1010.9
20260505231003 10 346 11.3 14.5 0.00 0.23 0.23 88 1011.0
20260505230503 10 346 9.7 12.9 0.00 0.23 0.23 88 1011.0
20260505230003 10 340 9.7 14.5 0.23 0.23 0.23 88 1011.0
20260505225504 10 343 9.7 11.3 0.23 0.23 0.23 88 1011.0
20260505225003 10 341 9.7 11.3 0.23 0.23 0.23 88 1011.0
20260505224503 10 344 11.3 12.9 0.23 0.23 0.23 88 1011.0
20260505224003 10 345 9.7 16.1 0.23 0.23 0.23 88 1011.1
20260505223503 10 337 9.7 14.5 0.23 0.23 0.23 88 1011.1
20260505223003 10 342 9.7 12.9 0.23 0.23 0.23 88 1011.1
20260505222503 10 346 8.0 12.9 0.23 0.23 0.23 88 1011.1
20260505222003 10 335 11.3 11.3 0.23 0.23 0.23 87 1011.0
20260505221503 10 338 11.3 12.9 0.23 0.23 0.23 87 1011.1
20260505221003 10 341 11.3 16.1 0.23 0.23 0.23 87 1011.2
20260505220503 10 342 12.9 16.1 0.23 0.23 0.23 87 1011.1
20260505220004 10 343 11.3 16.1 0.00 0.00 0.23 87 1011.1
20260505215503 10 338 11.3 16.1 0.00 0.00 0.00 87 1011.1
20260505215003 10 343 11.3 14.5 0.00 0.00 0.00 87 1011.2
20260505214503 10 344 12.9 16.1 0.00 0.00 0.00 87 1011.1
20260505214003 10 340 12.9 14.5 0.00 0.00 0.00 87 1011.1
20260505213503 10 343 11.3 16.1 0.00 0.00 0.00 87 1011.1
20260505213003 10 346 12.9 16.1 0.00 0.00 0.00 87 1011.1
20260505212503 10 345 12.9 17.7 0.00 0.00 0.00 87 1011.1
20260505212003 10 343 14.5 17.7 0.00 0.00 0.00 87 1011.1
20260505211503 10 342 12.9 14.5 0.00 0.00 0.00 87 1011.0
20260505211003 10 340 12.9 19.3 0.00 0.00 0.00 87 1011.0
20260505210503 10 340 12.9 17.7 0.00 0.00 0.00 86 1011.0
20260505210003 10 343 14.5 17.7 0.00 0.00 0.00 86 1011.1
20260505205524 10 341 16.1 19.3 0.00 0.00 0.00 86 1011.0
20260505205003 10 336 14.5 14.5 0.00 0.00 0.00 86 1011.0
20260505204503 10 329 14.5 25.7 0.00 0.00 0.00 86 1011.1
20260505204004 11 339 14.5 19.3 0.00 0.00 0.00 85 1011.1
20260505203503 11 341 17.7 24.1 0.00 0.00 0.00 85 1010.9
20260505203003 11 338 16.1 20.9 0.00 0.00 0.00 85 1010.8
20260505202503 11 340 14.5 17.7 0.00 0.00 0.00 85 1010.9
20260505202003 11 344 16.1 22.5 0.00 0.00 0.00 85 1010.9
20260505201503 11 343 12.9 14.5 0.00 0.00 0.00 84 1010.9
20260505201003 11 337 14.5 17.7 0.00 0.00 0.00 84 1010.8
20260505200503 11 326 17.7 29.0 0.00 0.00 0.00 84 1010.8
20260505200003 11 331 16.1 20.9 0.00 0.00 0.00 84 1010.8
20260505195503 11 338 14.5 20.9 0.00 0.00 0.00 84 1010.8
20260505195003 11 331 14.5 24.1 0.00 0.00 0.00 84 1010.7
20260505194503 11 340 16.1 19.3 0.00 0.00 0.00 84 1010.7
20260505194003 11 340 16.1 20.9 0.00 0.00 0.00 84 1010.6
20260505193503 11 332 16.1 20.9 0.00 0.00 0.00 84 1010.5
20260505193003 11 341 14.5 19.3 0.00 0.00 0.00 84 1010.5
20260505192503 11 342 14.5 17.7 0.00 0.00 0.00 84 1010.4
20260505192024 11 340 14.5 19.3 0.00 0.00 0.00 84 1010.4
20260505191503 11 338 12.9 19.3 0.00 0.00 0.00 84 1010.4
20260505191003 11 330 14.5 22.5 0.00 0.00 0.00 83 1010.4
20260505190503 11 329 14.5 19.3 0.00 0.00 0.00 83 1010.4
20260505190003 11 330 14.5 14.5 0.00 0.00 0.00 83 1010.4
20260505185503 11 333 14.5 22.5 0.00 0.00 0.00 83 1010.4
20260505185003 11 326 16.1 22.5 0.00 0.00 0.00 82 1010.3
20260505184503 11 330 17.7 19.3 0.00 0.00 0.00 82 1010.3
20260505184003 12 323 17.7 29.0 0.00 0.00 0.00 82 1010.3
20260505183503 12 323 19.3 24.1 0.00 0.00 0.00 82 1010.3
20260505183024 12 321 17.7 24.1 0.00 0.00 0.00 82 1010.3
20260505182503 12 327 19.3 24.1 0.00 0.00 0.00 81 1010.3
20260505182003 12 323 19.3 24.1 0.00 0.00 0.00 81 1010.2
20260505181503 12 322 19.3 30.6 0.00 0.00 0.00 81 1010.2
20260505181003 12 318 20.9 32.2 0.00 0.00 0.00 81 1010.1
20260505180503 12 323 17.7 24.1 0.00 0.00 0.00 80 1010.2
20260505180004 12 322 20.9 29.0 0.00 0.00 0.00 80 1010.2
20260505175503 12 322 17.7 25.7 0.00 0.00 0.00 80 1010.1
20260505175003 12 325 19.3 20.9 0.00 0.00 0.00 79 1010.1
20260505174503 12 322 17.7 30.6 0.00 0.00 0.00 79 1010.2
20260505174003 12 325 17.7 22.5 0.00 0.00 0.00 79 1010.1
20260505173503 13 321 20.9 29.0 0.00 0.00 0.00 78 1010.1
20260505173025 13 323 20.9 25.7 0.00 0.00 0.00 78 1010.0
20260505172503 13 322 17.7 22.5 0.00 0.00 0.00 79 1010.1
20260505172003 13 324 19.3 25.7 0.00 0.00 0.00 78 1010.1
20260505171524 13 326 19.3 24.1 0.00 0.00 0.00 77 1010.0
20260505171003 13 320 19.3 30.6 0.00 0.00 0.00 76 1010.0
20260505170503 13 320 20.9 33.8 0.00 0.00 0.00 77 1009.9
20260505170003 13 323 19.3 25.7 0.00 0.00 0.00 77 1010.0
20260505165503 13 326 17.7 25.7 0.00 0.00 0.00 77 1010.0
20260505165003 13 337 17.7 25.7 0.00 0.00 0.00 77 1010.1
20260505164503 13 325 19.3 32.2 0.00 0.00 0.00 77 1010.1
20260505164003 13 322 20.9 25.7 0.00 0.00 0.00 77 1010.0
20260505163503 13 329 17.7 25.7 0.00 0.00 0.00 77 1010.0
20260505163003 13 328 19.3 25.7 0.00 0.00 0.00 78 1009.9
20260505162524 13 338 20.9 25.7 0.00 0.00 0.00 78 1010.0
20260505162024 13 334 19.3 29.0 0.00 0.00 0.00 78 1010.1
20260505161503 13 331 20.9 35.4 0.00 0.00 0.00 78 1010.0
20260505161003 13 339 19.3 24.1 0.00 0.00 0.00 79 1010.0
20260505160503 14 345 20.9 30.6 0.00 0.00 0.00 79 1009.9
20260505153003 14 328 19.3 29.0 0.00 0.00 0.00 79 1010.0
20260505152503 14 324 16.1 25.7 0.00 0.00 0.00 80 1009.9
20260505152003 14 322 17.7 25.7 0.00 0.00 0.00 79 1009.9
20260505151503 15 323 19.3 29.0 0.00 0.00 0.00 79 1010.0